Stations météo

réclame
Mon MeteoGroup
Guernsey, Grande-Bretagne (3894): Température de l'air & dewpoint: 08.08.2020 20:00:00 - 14.08.2020 20:00:00 (BST)Guernsey, Grande-Bretagne (3894): Température de l'air -20cm & Température de l'air -100cm: 08.08.2020 20:00:00 - 14.08.2020 20:00:00 (BST)Guernsey, Grande-Bretagne (3894): Vitesse du vent: 08.08.2020 20:00:00 - 14.08.2020 20:00:00 (BST)Guernsey, Grande-Bretagne (3894): Direction du vent: 08.08.2020 20:00:00 - 14.08.2020 20:00:00 (BST)Guernsey, Grande-Bretagne (3894): reduced air pressure: 08.08.2020 20:00:00 - 14.08.2020 20:00:00 (BST)Guernsey, Grande-Bretagne (3894): visibility: 08.08.2020 20:00:00 - 14.08.2020 20:00:00 (BST)Guernsey, Grande-Bretagne (3894): Quantités de précipitations: 08.08.2020 20:00:00 - 14.08.2020 20:00:00 (BST)
Date & Time tt [°C] td [°C] tt -20cm [°C] tt -100cm [°C] ff [km/h] ff [knt] dd ppp [hPa] vv [km] rr [mm]
14.08.2020 20:00:00 17,8 17,8 - - 21 11 W 1015,7 4,0 -
14.08.2020 19:00:00 18,1 18,0 - - 22 12 W 1015,5 5 -
14.08.2020 18:00:00 17,9 17,9 - - 24 13 W 1015,4 1,8 -
14.08.2020 17:00:00 17,8 17,8 - - 26 14 W 1015,3 1,8 -
14.08.2020 16:00:00 18,2 18,2 - - 26 14 W 1015,3 1,5 -
14.08.2020 15:00:00 18,2 18,2 - - 22 12 W 1015,2 1,5 -
14.08.2020 14:00:00 18,6 18,5 - - 26 14 W 1015,2 1,5 -
14.08.2020 13:00:00 18,1 18,1 - - 21 11 W 1015,1 1,7 -
14.08.2020 12:00:00 18,4 18,3 - - 18 10 W 1014,8 6 -
14.08.2020 11:00:00 18,4 18,4 - - 16 9 W 1014,5 2,7 -
14.08.2020 10:00:00 18,5 18,3 20,4 18,2 18 10 W 1014,2 7 -
14.08.2020 09:00:00 18,3 18,2 - - 15 8 W 1013,9 3,9 -
14.08.2020 08:00:00 18,2 18,2 - - 15 8 W 1013,8 3,6 -
14.08.2020 07:00:00 18,0 17,9 - - 15 8 W 1013,5 3,6 -
14.08.2020 06:00:00 18,0 17,9 - - 13 7 W 1013,4 3,0 -
14.08.2020 05:00:00 17,9 17,8 - - 13 7 W 1013,0 3,0 -
14.08.2020 04:00:00 17,9 17,8 - - 15 8 W 1013,3 2,5 -
14.08.2020 03:00:00 17,9 17,8 - - 18 10 W 1013,5 3,0 -
14.08.2020 02:00:00 18,1 17,7 - - 15 8 W 1013,8 8 -
14.08.2020 01:00:00 18,0 17,9 - - 16 9 W 1013,8 4,0 -
14.08.2020 00:00:00 18,1 18,0 - - 11 6 W 1013,8 1,2 -
13.08.2020 23:00:00 18,3 18,2 - - 13 7 WNW 1013,6 3,0 -
13.08.2020 22:00:00 18,4 18,3 - - 9 5 W 1013,6 3,5 -
13.08.2020 21:00:00 18,2 18,1 - - 5 3 WNW 1013,2 3,5 -
13.08.2020 20:00:00 18,3 18,1 - - 9 5 NW 1012,8 1,8 -
13.08.2020 19:00:00 18,6 18,3 - - 11 6 NW 1012,7 0,9 -
13.08.2020 18:00:00 18,9 18,5 - - 11 6 NNW 1012,5 0,5 -
13.08.2020 17:00:00 18,7 18,4 - - 9 5 WNW 1012,3 0,4 -
13.08.2020 16:00:00 18,8 18,3 - - 11 6 N 1012,7 0,5 -
13.08.2020 15:00:00 19,8 18,6 - - 13 7 NW 1012,7 3,8 -
13.08.2020 14:00:00 22,6 18,9 - - 9 5 WNW 1013,0 3,8 -
13.08.2020 13:00:00 23,7 18,7 - - 13 7 SW 1012,4 10 0,0
13.08.2020 12:00:00 22,4 18,3 - - 13 7 SW 1012,4 5 -
13.08.2020 11:00:00 24,2 18,8 - - 5 3 - 1012,0 10 -
13.08.2020 10:00:00 20,8 18,3 20,4 18,0 9 5 SSE 1012,1 15 -
13.08.2020 09:00:00 21,1 19,2 - - 5 3 - 1011,6 10 -
13.08.2020 08:00:00 18,9 18,8 - - 9 5 ENE 1012,0 3,0 -
13.08.2020 07:00:00 18,1 18,1 - - 8 4 NNE 1011,7 0,2 -
13.08.2020 06:00:00 17,7 17,6 - - 8 4 NNE 1012,0 0,9 -
13.08.2020 05:00:00 17,6 17,6 - - 8 4 N 1011,5 0,8 -
13.08.2020 04:00:00 18,2 18,1 - - 9 5 NNW 1011,8 0,1 -
13.08.2020 03:00:00 18,1 17,8 - - 5 3 WNW 1012,0 10 -
13.08.2020 02:00:00 18,9 17,6 - - 9 5 SSE 1012,5 10 -
13.08.2020 01:00:00 19,2 17,3 - - 5 3 ESE 1011,9 10 -
13.08.2020 00:00:00 20,3 18,1 - - 2 1 SSE 1011,9 10 -
12.08.2020 23:00:00 20,3 18,3 - - 4 2 S 1012,2 10 -
12.08.2020 22:00:00 19,9 18,8 - - 8 4 - 1012,3 10 -
12.08.2020 21:00:00 20,1 18,6 - - 13 7 SSE 1012,8 10 -
12.08.2020 20:00:00 21,6 18,5 - - 8 4 ENE 1011,9 10 -
12.08.2020 19:00:00 24,0 19,0 - - 4 2 - 1011,5 10 -
12.08.2020 18:00:00 22,2 18,1 - - 13 7 S 1011,7 10 -
12.08.2020 17:00:00 21,1 17,9 - - 13 7 SE 1012,1 10 -
12.08.2020 16:00:00 21,5 18,0 - - 18 10 SE 1013,2 10 -
12.08.2020 15:00:00 24,5 17,8 - - 8 4 SW 1012,6 10 -
12.08.2020 14:00:00 25,0 17,4 - - 9 5 SW 1012,2 10 -
12.08.2020 13:00:00 22,9 17,6 - - 15 8 SSW 1012,6 10 0,0
12.08.2020 12:00:00 22,7 17,9 - - 18 10 SSW 1012,2 10 -
12.08.2020 11:00:00 22,5 18,1 - - 22 12 S 1012,7 10 -
12.08.2020 10:00:00 24,3 18,0 20,7 18,0 18 10 SSE 1012,3 10 -
12.08.2020 09:00:00 22,0 18,4 - - 16 9 SSE 1012,2 10 -
12.08.2020 08:00:00 22,8 16,9 - - 16 9 SE 1011,5 10 -
12.08.2020 07:00:00 21,1 17,5 - - 16 9 ESE 1012,0 10 0,0
12.08.2020 06:00:00 20,8 17,6 - - 16 9 ESE 1012,1 10 -
12.08.2020 05:00:00 20,7 18,0 - - 15 8 ESE 1011,7 10 -
12.08.2020 04:00:00 20,0 17,8 - - 9 5 E 1011,9 10 -
12.08.2020 03:00:00 21,0 17,8 - - 8 4 E 1012,2 10 -
12.08.2020 02:00:00 22,3 17,9 - - 9 5 SSW 1012,2 10 -
12.08.2020 01:00:00 22,6 18,0 - - 9 5 S 1012,8 10 0,0
12.08.2020 00:00:00 22,1 18,0 - - 9 5 SE 1012,6 10 -
11.08.2020 23:00:00 20,9 17,4 - - 11 6 ENE 1012,9 10 -
11.08.2020 22:00:00 22,5 17,3 - - 9 5 E 1013,0 10 -
11.08.2020 21:00:00 21,6 17,6 - - 9 5 ENE 1013,0 9 -
11.08.2020 20:00:00 22,1 17,4 - - 11 6 NE 1012,8 8 -
11.08.2020 19:00:00 22,9 17,3 - - 13 7 NE 1012,9 10 0,0
11.08.2020 18:00:00 24,7 17,4 - - 13 7 NNE 1012,3 10 -
11.08.2020 17:00:00 24,0 18,0 - - 13 7 NNE 1013,0 9 -
11.08.2020 16:00:00 27,0 18,2 - - 11 6 NNE 1013,3 10 -
11.08.2020 15:00:00 27,4 19,4 - - 11 6 NNE 1013,6 10 -
11.08.2020 14:00:00 27,9 17,3 - - 9 5 NE 1013,9 10 -
11.08.2020 13:00:00 25,7 18,1 - - 16 9 NE 1014,1 10 0,0
11.08.2020 12:00:00 25,6 18,3 - - 15 8 ENE 1014,2 10 -
11.08.2020 11:00:00 25,0 19,0 - - 15 8 NE 1014,4 10 -
11.08.2020 10:00:00 23,5 19,0 20,0 17,9 15 8 NNE 1014,4 9 -
11.08.2020 09:00:00 21,5 19,2 - - 11 6 NNE 1014,6 6 -
11.08.2020 08:00:00 19,1 18,6 - - 11 6 NE 1014,6 4,5 -
11.08.2020 07:00:00 18,4 18,1 - - 9 5 NNE 1014,6 2,0 0,0
11.08.2020 06:00:00 17,5 17,1 - - 11 6 N 1014,5 2,0 -
11.08.2020 05:00:00 17,5 17,2 - - 11 6 N 1014,2 5 -
11.08.2020 04:00:00 17,2 16,9 - - 13 7 N 1014,2 10 -
11.08.2020 03:00:00 17,3 16,9 - - 9 5 N 1014,6 10 -
11.08.2020 02:00:00 17,4 16,9 - - 9 5 N 1014,8 8 -
11.08.2020 01:00:00 17,6 17,1 - - 13 7 N 1014,8 8 -
11.08.2020 00:00:00 17,6 17,2 - - 11 6 N 1014,9 8 -
10.08.2020 23:00:00 17,4 17,0 - - 11 6 N 1015,1 8 -
10.08.2020 22:00:00 17,6 17,1 - - 9 5 N 1014,7 8 -
10.08.2020 21:00:00 18,0 17,1 - - 8 4 NW 1014,6 10 -
10.08.2020 20:00:00 20,3 17,7 - - 8 4 NNW 1014,0 10 -
10.08.2020 19:00:00 21,7 17,9 - - 8 4 N 1014,1 9 -
10.08.2020 18:00:00 22,4 17,9 - - 11 6 N 1014,1 10 -
10.08.2020 17:00:00 22,8 17,8 - - 15 8 N 1014,0 9 -
10.08.2020 16:00:00 21,0 17,9 - - 13 7 NNW 1013,9 10 -
10.08.2020 15:00:00 20,4 17,7 - - 11 6 N 1014,6 9 -
10.08.2020 14:00:00 20,2 17,6 - - 8 4 NNW 1014,5 9 -
10.08.2020 13:00:00 19,5 17,2 - - 13 7 SSE 1014,0 6 -
10.08.2020 12:00:00 19,8 17,4 - - 16 9 N 1012,5 5 -
10.08.2020 11:00:00 19,1 17,3 - - 5 3 - 1014,1 5 -
10.08.2020 10:00:00 20,6 17,3 20,2 17,9 11 6 WNW 1014,1 5 -
10.08.2020 09:00:00 19,4 17,3 - - 11 6 NW 1013,9 5 -
10.08.2020 08:00:00 18,3 17,0 - - 11 6 NNW 1013,4 4,0 -
10.08.2020 07:00:00 17,6 16,7 - - 9 5 WNW 1013,2 9 0,0
10.08.2020 06:00:00 17,4 16,5 - - 21 11 N 1012,0 8 -
10.08.2020 05:00:00 17,1 16,3 - - 21 11 N 1012,2 10 -
10.08.2020 04:00:00 17,5 16,3 - - 18 10 NNW 1013,8 10 -
10.08.2020 03:00:00 17,7 16,2 - - 16 9 NNW 1014,6 10 -
10.08.2020 02:00:00 17,7 16,3 - - 16 9 N 1013,9 10 -
10.08.2020 01:00:00 18,3 16,3 - - 16 9 NNW 1014,4 10 0,0
10.08.2020 00:00:00 18,2 16,7 - - 16 9 NNW 1015,2 10 -
09.08.2020 23:00:00 18,1 16,4 - - 13 7 NW 1015,4 10 -
09.08.2020 22:00:00 17,7 16,2 - - 13 7 NW 1015,9 11 -
09.08.2020 21:00:00 17,5 16,4 - - 13 7 NW 1015,9 9 -
09.08.2020 20:00:00 18,2 16,0 - - 11 6 NNW 1015,8 10 -
09.08.2020 19:00:00 19,2 16,2 - - 15 8 NNW 1015,6 10 0,0
09.08.2020 18:00:00 20,3 16,3 - - 16 9 NNW 1015,8 10 -
09.08.2020 17:00:00 21,4 16,6 - - 16 9 N 1016,4 10 -
09.08.2020 16:00:00 22,1 16,6 - - 16 9 N 1016,8 10 -
09.08.2020 15:00:00 21,2 16,4 - - 21 11 N 1016,5 10 -
09.08.2020 14:00:00 22,2 16,8 - - 16 9 NNE 1017,0 10 -
09.08.2020 13:00:00 21,0 16,3 - - 21 11 NNE 1017,2 10 0,0
09.08.2020 12:00:00 20,5 16,2 - - 16 9 NNE 1017,4 10 -
09.08.2020 11:00:00 19,7 16,3 - - 26 14 NNE 1016,9 10 -
09.08.2020 10:00:00 19,8 16,7 20,0 17,7 18 10 NNE 1017,5 10 -
09.08.2020 09:00:00 19,1 16,8 - - 15 8 NNE 1017,8 10 -
09.08.2020 08:00:00 17,9 16,6 - - 18 10 NNE 1017,6 10 -
09.08.2020 07:00:00 17,3 16,5 - - 18 10 NNE 1017,4 9 0,0
09.08.2020 06:00:00 16,4 16,2 - - 11 6 N 1017,5 8 -
09.08.2020 05:00:00 16,6 16,3 - - 16 9 N 1017,3 10 -
09.08.2020 04:00:00 16,9 16,5 - - 11 6 NNW 1017,6 10 -
09.08.2020 03:00:00 17,8 16,9 - - 18 10 NNW 1017,7 10 -
09.08.2020 02:00:00 18,0 17,0 - - 13 7 NW 1018,0 35 -
09.08.2020 01:00:00 18,4 17,3 - - 13 7 NW 1018,6 10 0,0
09.08.2020 00:00:00 19,2 17,6 - - 16 9 NNW 1018,6 35 -
08.08.2020 23:00:00 19,0 17,7 - - 13 7 NW 1018,6 10 -
08.08.2020 22:00:00 19,2 17,6 - - 13 7 NW 1018,8 10 -
08.08.2020 21:00:00 19,3 17,4 - - 15 8 NW 1018,5 10 -
08.08.2020 20:00:00 20,3 16,8 - - 16 9 NW 1018,2 10 -

tt = Température de l'air
td = dewpoint
tt -20cm = Température de l'air -20cm
tt -100cm = Température de l'air -100cm
ff = Vitesse du vent
dd = Direction du vent
ppp = reduced air pressure
vv = visibility
rr = Quantités de précipitations

stations d'obs. à proximité